Location: Plainartige
(45.6866°N, 1.7993°E)
Time: 10:46:31
(UTC+00:00)

Tiros 1 - Pass Details

Date: 30 May 2022
Orbit: 629 x 663 km, 48.4° (Epoch: 04 July)

Event Time Altitude Azimuth Distance (km) Brightness Sun altitude
Rises 02:32:28 0° 281° (WNW) 2,921 10.3 -13.2°
Reaches altitude 10° 02:34:48 10° 285° (WNW) 2,016 9.5 -12.9°
Maximum altitude 02:39:25 65° 7° (N) 702 7.5 -12.4°
Drops below altitude 10° 02:44:04 10° 90° (E) 2,033 10.3 -11.9°
Sets 02:46:26 0° 94° (E) 2,948 11.1 -11.6°
